Simultaneous Nadir Overpasses (SNOs) Predictions

Prediction of SNOs between METOP-C and LANDSAT-8 Satellite Orbit:

Table of predicted SNOs for the next 14.0 days since TLE Epoch: 5/4/2024
Index Date (METOP-C) Time (METOP-C) Lat,Lon (METOP-C) SZA (METOP-C ) Date (LANDSAT-8) Time (LANDSAT-8) Lat,Lon (LANDSAT-8) SZA (LANDSAT-8 ) Distance(km) Time Diff (sec)
1 05/05/2024 18:00:03 -81.02, 127.35 113.56 05/05/2024 18:01:12 -81.02, 127.47 113.51 2.16 69
2 05/05/2024 18:50:42 81.05, -64.44 66.56 05/05/2024 18:50:37 81.05, -64.46 66.55 0.25 5
3 05/08/2024 13:34:26 -81.02,-166.15 114.30 05/08/2024 13:35:26 -81.02,-166.07 114.27 1.35 60
4 05/08/2024 14:25:05 81.05, 2.06 65.81 05/08/2024 14:24:51 81.05, 1.98 65.79 1.40 14
5 05/11/2024 09:08:49 -81.02, -99.71 115.03 05/11/2024 09:09:40 -81.02, -99.73 115.01 0.73 51
6 05/11/2024 09:59:29 81.04, 68.11 65.03 05/11/2024 09:59:05 81.04, 68.29 65.04 3.05 24
7 05/14/2024 04:43:11 -81.02, -33.34 115.72 05/14/2024 04:43:52 -81.02, -33.17 115.68 2.99 41
8 05/14/2024 05:33:50 81.05, 134.83 64.39 05/14/2024 05:33:17 81.05, 134.83 64.37 0.29 33
9 05/17/2024 00:17:33 -81.03, 33.32 116.34 05/17/2024 00:18:05 -81.02, 33.26 116.33 1.20 32



Historial Predications of SNOs between METOP-C and LANDSAT-8
